Location: Newark
(49.8969°N, 3.3422°E)
Time: 22:05:06
(UTC+00:00)

Tiros 1 - Pass Details

Date: 26 January 2021
Orbit: 630 x 664 km, 48.4° (Epoch: 08 March)

Event Time Altitude Azimuth Distance (km) Brightness Sun altitude
Rises 20:27:02 0° 275° (W) 2,924 11.4 -37.6°
Reaches altitude 10° 20:29:22 10° 273° (W) 2,012 10.4 -37.9°
Enters shadow 20:30:01 14° 271° (W) 1,767 10.0 -38.0°
